Stündliche Wetter Kyzyltu

Heute, 11 Mai, Dienstag

Zeit Temperatur Niederschläge Wind Luftdruck Luftfeuchtigkeit
00:00 +19°C° 0 mm 2 m/S 729 mmHg 50%
01:00 +19°C° 0 mm 2 m/S 729 mmHg 52%
02:00 +18°C° 0 mm 2 m/S 729 mmHg 54%
03:00 +18°C° 0 mm 2 m/S 729 mmHg 54%
04:00 +17°C° 0 mm 2 m/S 729 mmHg 54%
05:00 +16°C° 0 mm 2 m/S 730 mmHg 55%
06:00 +18°C° 0 mm 2 m/S 730 mmHg 53%
07:00 +19°C° 0 mm 2 m/S 731 mmHg 52%
08:00 +21°C° 0 mm 2 m/S 731 mmHg 50%
09:00 +24°C° 0 mm 2 m/S 731 mmHg 43%
10:00 +26°C° 0 mm 3 m/S 732 mmHg 35%
11:00 +28°C° 0 mm 3 m/S 732 mmHg 28%
12:00 +28°C° 0 mm 4 m/S 732 mmHg 25%
13:00 +29°C° 0 mm 4 m/S 732 mmHg 22%
14:00 +30°C° 0 mm 5 m/S 732 mmHg 19%
15:00 +29°C° 0 mm 5 m/S 731 mmHg 19%
16:00 +29°C° 0 mm 5 m/S 731 mmHg 20%
17:00 +29°C° 0 mm 4 m/S 731 mmHg 20%
18:00 +27°C° 0 mm 4 m/S 731 mmHg 25%
19:00 +25°C° 0 mm 3 m/S 731 mmHg 30%
20:00 +22°C° 0 mm 3 m/S 731 mmHg 35%
21:00 +21°C° 0 mm 3 m/S 731 mmHg 37%
22:00 +20°C° 0 mm 3 m/S 731 mmHg 40%
23:00 +19°C° 0 mm 3 m/S 731 mmHg 43%

Morgen, 12 Mai, Mittwoch

Zeit Temperatur Niederschläge Wind Luftdruck Luftfeuchtigkeit
00:00 +19°C° 0 mm 2 m/S 730 mmHg 44%
01:00 +18°C° 0 mm 2 m/S 730 mmHg 45%
02:00 +18°C° 0 mm 2 m/S 730 mmHg 46%
03:00 +18°C° 0 mm 2 m/S 730 mmHg 46%
04:00 +17°C° 0 mm 2 m/S 730 mmHg 46%
05:00 +17°C° 0 mm 2 m/S 730 mmHg 47%
06:00 +19°C° 0 mm 2 m/S 730 mmHg 44%
07:00 +20°C° 0 mm 2 m/S 730 mmHg 41%
08:00 +23°C° 0 mm 2 m/S 730 mmHg 38%
09:00 +25°C° 0 mm 2 m/S 730 mmHg 35%
10:00 +26°C° 0 mm 3 m/S 730 mmHg 31%
11:00 +28°C° 0 mm 3 m/S 730 mmHg 28%
12:00 +28°C° 0 mm 4 m/S 730 mmHg 27%
13:00 +29°C° 0 mm 4 m/S 730 mmHg 26%
14:00 +30°C° 0 mm 5 m/S 730 mmHg 26%
15:00 +29°C° 0 mm 5 m/S 730 mmHg 27%
16:00 +29°C° 0 mm 6 m/S 729 mmHg 28%
17:00 +29°C° 0 mm 7 m/S 729 mmHg 30%
18:00 +27°C° 0 mm 6 m/S 729 mmHg 34%
19:00 +24°C° 0 mm 6 m/S 729 mmHg 38%
20:00 +22°C° 0 mm 6 m/S 729 mmHg 42%
21:00 +22°C° 0 mm 6 m/S 728 mmHg 42%
22:00 +21°C° 0 mm 5 m/S 728 mmHg 42%
23:00 +20°C° 0 mm 5 m/S 728 mmHg 42%

übermorgen, 13 Mai, Donnerstag

Zeit Temperatur Niederschläge Wind Luftdruck Luftfeuchtigkeit
00:00 +19°C° 0 mm 4 m/S 728 mmHg 45%
01:00 +18°C° 0 mm 4 m/S 727 mmHg 47%
02:00 +17°C° 0 mm 3 m/S 727 mmHg 50%
03:00 +16°C° 0 mm 3 m/S 727 mmHg 51%
04:00 +14°C° 0 mm 3 m/S 727 mmHg 52%
05:00 +14°C° 0 mm 3 m/S 727 mmHg 53%
06:00 +16°C° 0 mm 3 m/S 728 mmHg 48%
07:00 +18°C° 0 mm 3 m/S 728 mmHg 43%
08:00 +19°C° 0 mm 3 m/S 729 mmHg 38%
09:00 +21°C° 0 mm 2 m/S 729 mmHg 35%
10:00 +24°C° 0 mm 2 m/S 729 mmHg 32%
11:00 +26°C° 0 mm 1 m/S 729 mmHg 29%
12:00 +27°C° 0 mm 2 m/S 729 mmHg 28%
13:00 +28°C° 0 mm 2 m/S 729 mmHg 28%
14:00 +29°C° 0 mm 3 m/S 729 mmHg 27%
15:00 +29°C° 0 mm 3 m/S 728 mmHg 27%
16:00 +29°C° 0 mm 4 m/S 728 mmHg 28%
17:00 +29°C° 0 mm 5 m/S 728 mmHg 28%
18:00 +27°C° 0 mm 5 m/S 728 mmHg 30%
19:00 +24°C° 0 mm 6 m/S 728 mmHg 32%
20:00 +22°C° 0 mm 6 m/S 728 mmHg 33%
21:00 +21°C° 0 mm 5 m/S 728 mmHg 35%
22:00 +20°C° 0 mm 4 m/S 728 mmHg 36%
23:00 +19°C° 0 mm 3 m/S 728 mmHg 37%

14 Mai, Freitag

Zeit Temperatur Niederschläge Wind Luftdruck Luftfeuchtigkeit
00:00 +18°C° 0 mm 3 m/S 727 mmHg 41%
01:00 +18°C° 0 mm 3 m/S 727 mmHg 45%
02:00 +17°C° 0 mm 3 m/S 727 mmHg 49%
03:00 +17°C° 0 mm 3 m/S 727 mmHg 48%
04:00 +16°C° 0 mm 3 m/S 728 mmHg 47%
05:00 +16°C° 0 mm 3 m/S 728 mmHg 47%
06:00 +17°C° 0 mm 3 m/S 728 mmHg 42%
07:00 +19°C° 0 mm 3 m/S 729 mmHg 38%
08:00 +20°C° 0 mm 2 m/S 730 mmHg 34%
09:00 +23°C° 0 mm 2 m/S 730 mmHg 31%
10:00 +25°C° 0 mm 1 m/S 730 mmHg 29%
11:00 +25°C° 0 mm 0 m/S 730 mmHg 26%
12:00 +28°C° 0 mm 1 m/S 729 mmHg 26%
13:00 +30°C° 0 mm 2 m/S 729 mmHg 25%
14:00 +31°C° 0 mm 2 m/S 729 mmHg 25%
15:00 +31°C° 0 mm 3 m/S 728 mmHg 24%
16:00 +31°C° 0 mm 3 m/S 728 mmHg 24%
17:00 +32°C° 0 mm 4 m/S 728 mmHg 24%
18:00 +29°C° 0 mm 4 m/S 728 mmHg 30%
19:00 +26°C° 0 mm 4 m/S 728 mmHg 36%
20:00 +23°C° 0 mm 4 m/S 727 mmHg 41%
21:00 +22°C° 0 mm 3 m/S 727 mmHg 43%
22:00 +21°C° 0 mm 2 m/S 727 mmHg 45%
23:00 +21°C° 0 mm 1 m/S 727 mmHg 47%

15 Mai, Samstag

Zeit Temperatur Niederschläge Wind Luftdruck Luftfeuchtigkeit
00:00 +21°C° 0 mm 1 m/S 726 mmHg 48%
01:00 +20°C° 0 mm 2 m/S 726 mmHg 50%
02:00 +20°C° 0 mm 2 m/S 726 mmHg 51%
03:00 +19°C° 0 mm 2 m/S 726 mmHg 52%
04:00 +19°C° 0 mm 2 m/S 726 mmHg 53%
05:00 +19°C° 0 mm 1 m/S 726 mmHg 53%
06:00 +20°C° 0 mm 2 m/S 727 mmHg 49%
07:00 +21°C° 0 mm 2 m/S 727 mmHg 45%
08:00 +24°C° 0 mm 2 m/S 728 mmHg 40%
09:00 +25°C° 0 mm 2 m/S 728 mmHg 36%
10:00 +27°C° 0 mm 1 m/S 728 mmHg 33%
11:00 +29°C° 0 mm 1 m/S 728 mmHg 29%
12:00 +30°C° 0 mm 1 m/S 727 mmHg 27%
13:00 +31°C° 0 mm 2 m/S 727 mmHg 25%
14:00 +34°C° 0 mm 2 m/S 727 mmHg 23%
15:00 +34°C° 0 mm 2 m/S 726 mmHg 22%
16:00 +34°C° 0 mm 3 m/S 726 mmHg 22%
17:00 +34°C° 0 mm 3 m/S 726 mmHg 22%
18:00 +30°C° 0 mm 3 m/S 726 mmHg 30%
19:00 +28°C° 0 mm 3 m/S 726 mmHg 38%
20:00 +25°C° 0 mm 2 m/S 725 mmHg 46%
21:00 +24°C° 0 mm 2 m/S 725 mmHg 48%
22:00 +23°C° 0 mm 2 m/S 725 mmHg 51%
23:00 +21°C° 0 mm 2 m/S 725 mmHg 54%

16 Mai, Sonntag

Zeit Temperatur Niederschläge Wind Luftdruck Luftfeuchtigkeit
00:00 +21°C° 0 mm 2 m/S 725 mmHg 54%
01:00 +21°C° 0 mm 2 m/S 725 mmHg 54%
02:00 +21°C° 0 mm 1 m/S 724 mmHg 55%
03:00 +20°C° 0 mm 2 m/S 725 mmHg 55%
04:00 +19°C° 0 mm 2 m/S 725 mmHg 56%
05:00 +18°C° 0 mm 2 m/S 725 mmHg 57%
06:00 +20°C° 0 mm 2 m/S 726 mmHg 51%
07:00 +21°C° 0 mm 2 m/S 727 mmHg 46%
08:00 +22°C° 0 mm 3 m/S 727 mmHg 40%
09:00 +25°C° 0 mm 2 m/S 727 mmHg 36%
10:00 +27°C° 0 mm 2 m/S 727 mmHg 31%
11:00 +29°C° 0 mm 2 m/S 727 mmHg 26%
12:00 +30°C° 0 mm 2 m/S 727 mmHg 24%
13:00 +32°C° 0 mm 2 m/S 727 mmHg 22%
14:00 +34°C° 0 mm 2 m/S 726 mmHg 20%
15:00 +34°C° 0 mm 2 m/S 726 mmHg 19%
16:00 +34°C° 0 mm 3 m/S 726 mmHg 18%
17:00 +35°C° 0 mm 3 m/S 726 mmHg 17%
18:00 +31°C° 0 mm 3 m/S 726 mmHg 26%
19:00 +29°C° 0 mm 4 m/S 726 mmHg 35%
20:00 +26°C° 0 mm 4 m/S 726 mmHg 44%
21:00 +25°C° 0 mm 3 m/S 726 mmHg 43%
22:00 +25°C° 0 mm 3 m/S 726 mmHg 43%
23:00 +24°C° 0 mm 2 m/S 726 mmHg 43%
Mehr zeigen

Wir brauchen deine Erlaubnis

Meteoprog und unser Service Anbieter werden persönliche Daten aufbewahren, so wie Cookies, Geräte Bezeichnung oder ähnliche Technologien von deinem Gerät und Prozess, so wie Persönliche Daten Inhalte und Werbungen, genauso wie social Media und den Verkehr zu analysieren.

  • Aufbewahrung und/oder Zugang zu deiner Geräte Informationen.

    Cookies, Geräte Bezeichnung oder andere Informationen, können aufbewahrt oder Zugang zu deinem Gerät erhalten, für den Grund, der oben angegeben wird.

  • Personalisierte Werbung und Inhalte, Messungen, Einblick in das Publikum und Produkt Entwicklung.

    Werbungen und Inhalte können personalisiert werden, basierend auf ein Profil. Mehr Daten können besser personalisierte Werbungen und Inhalte hinzufügen. Werbung und Inhalte können gezeigt und gemessen werden. Einblicke über das Publikum, welche die Werbung gesehen haben und den Inhalt, können abgeleitet werden. So wie Daten können genutzt werden, um es zu verbessern oder die Benutzer Erfahrung zu verbessern das System und die Software.

Wenn du “Ich stimme zu” klickst, erlaubst du uns, die Cookies zu benutzen die Geräte Bezeichnung, den Web oder ähnliche Technologien zu benutzen. Deine Settings, können in deinem Gerät bei deinem Browser geändert werden.

Für den bestimmten Zweck, berechtigten Interessen beruhen darauf, mehr als auf den Inhalt. Du kannst mehr darüber in unseren Privaten und Cookie Politik lesen.